Theta_e
358 358 357 356 357 355 354 353 352 351 350 350 349 349 351 352 353 351 349 351 353 353 353 353 353 354 354 355 357 356 356 356 355 355 356 355 353 351 350 349 348 348
358 359 358 357 357 356 355 355 353 352 352 351 349 348 348 351 353 353 351 351 353 353 354 355 354 353 352 354 356 356 355 357 356 355 356 355 353 351 351 350 348 349
356 358 358 357 356 356 356 355 354 353 354 353 350 348 347 349 352 354 353 352 352 353 353 355 354 352 352 352 356 356 355 357 357 354 355 356 354 353 351 350 350 349
354 355 356 356 356 356 356 355 354 354 354 354 352 350 348 348 351 353 354 353 353 352 352 354 354 353 352 351 354 356 355 358 357 353 355 357 355 354 352 350 350 350
353 353 354 354 355 356 355 355 355 354 354 353 353 352 350 350 351 352 352 353 353 352 352 353 353 352 352 352 353 355 355 356 356 353 354 357 356 354 353 351 350 351
353 353 354 354 354 356 355 354 354 354 354 353 353 353 352 352 351 350 349 351 352 351 351 352 353 351 350 352 353 354 354 354 355 354 354 356 356 354 352 351 352 351
353 353 354 355 354 354 354 354 354 354 353 353 353 353 353 353 353 350 347 348 350 350 350 351 352 350 349 351 353 354 353 353 354 356 355 354 355 353 351 351 352 352
352 352 352 353 354 353 354 353 353 353 353 353 353 353 353 353 354 352 348 347 348 348 349 350 351 352 349 348 350 352 353 352 353 357 358 355 354 354 353 352 353 354
351 351 351 352 353 353 353 352 352 353 352 352 352 352 353 352 353 354 350 348 347 347 348 349 351 352 350 348 348 350 351 351 350 353 356 355 354 354 354 353 352 353
350 351 352 351 352 353 353 352 352 352 352 352 352 352 351 351 353 355 353 350 348 347 348 348 350 352 351 350 348 348 350 349 349 350 353 354 353 353 353 352 352 352
350 351 352 352 352 352 352 352 350 351 352 352 352 352 351 350 352 354 354 353 352 349 348 348 349 351 352 351 348 347 348 348 349 349 351 353 353 352 352 352 351 351
350 351 352 352 352 352 351 350 349 350 352 352 351 351 350 350 351 351 352 355 354 351 348 348 349 350 351 351 348 347 348 347 347 348 350 352 352 352 352 352 352 352
351 351 352 351 352 352 351 350 349 350 353 352 350 349 349 349 350 350 351 354 355 354 351 349 350 350 351 351 349 347 347 346 346 346 348 350 351 352 352 352 352 352
351 351 352 351 351 352 352 350 349 348 351 353 350 348 350 350 349 350 352 352 353 354 352 350 351 352 351 352 350 348 346 346 346 345 346 348 349 350 351 352 352 351
352 352 352 351 350 351 352 350 348 347 350 352 351 349 349 349 349 350 351 351 352 353 351 350 352 353 353 352 352 350 347 346 346 345 344 346 346 347 349 350 351 351
354 353 353 352 350 350 350 348 348 348 348 350 351 350 349 349 349 350 350 351 352 351 350 351 352 353 352 352 352 352 349 347 347 346 345 345 345 346 347 348 349 349
354 353 354 352 349 349 349 349 349 349 349 349 350 350 348 348 349 349 350 352 351 351 351 352 352 352 351 351 351 351 351 351 350 350 350 348 347 347 348 348 347 347
353 353 354 351 349 349 349 349 348 349 348 348 348 348 348 348 348 349 350 352 352 353 353 352 352 351 350 351 351 351 351 352 351 351 351 352 351 351 350 349 347 346
352 352 352 351 350 350 349 349 348 348 348 347 348 348 348 349 349 349 351 352 352 352 352 352 352 351 349 349 351 351 351 351 351 351 351 352 352 352 352 351 350 349
352 352 351 350 351 350 350 350 348 347 348 347 347 348 348 349 350 350 350 351 351 351 351 351 352 351 350 349 350 350 350 350 351 353 353 352 351 352 354 353 354 354
352 352 351 350 350 350 350 349 348 347 347 348 347 347 347 348 349 349 350 350 350 350 350 351 351 351 351 350 350 350 349 349 351 353 353 352 351 353 354 354 355 355
352 353 352 351 350 350 350 349 348 347 347 348 348 347 347 348 348 349 349 349 350 350 350 351 351 350 350 350 349 349 348 348 350 352 353 352 351 353 353 353 354 355
353 353 353 352 351 351 350 349 349 348 347 348 348 348 348 348 348 348 348 349 349 349 350 350 350 349 349 348 348 348 348 348 349 350 351 351 352 354 353 353 354 355
354 354 354 353 352 351 351 350 350 349 348 348 348 348 349 349 348 348 348 348 349 349 349 349 349 349 348 347 347 347 347 348 349 350 350 350 352 353 351 351 353 354
353 353 354 353 353 352 351 351 351 349 348 348 348 348 348 348 348 348 347 348 348 348 348 348 348 348 348 347 347 347 346 348 349 350 351 351 352 353 351 352 354 353
351 352 353 354 354 353 352 352 351 350 350 348 347 347 347 347 348 348 348 348 347 347 348 348 348 348 348 348 348 347 347 347 349 350 350 350 351 353 353 353 353 352
Wind_Speed
17 16 17 17 16 15 16 16 16 18 18 19 19 19 20 19 18 20 20 20 19 19 18 17 17 16 15 13 12 12 11 11 11 10 10 9 9 9 8 8 7 5
18 16 16 16 16 16 17 17 17 17 18 19 19 19 20 20 20 20 21 20 20 20 19 18 18 18 17 15 14 13 12 11 11 10 10 11 11 10 9 9 8 7
19 18 17 17 18 18 18 18 18 17 17 18 19 20 20 21 21 21 21 21 21 20 20 19 18 19 19 17 14 14 14 13 13 12 10 11 12 11 10 10 9 9
20 20 20 20 20 19 19 19 19 18 18 18 19 20 20 21 22 22 22 22 21 21 21 20 19 19 19 18 16 15 15 14 15 15 12 11 12 11 11 11 10 10
20 21 22 23 22 21 20 20 20 20 20 19 19 20 21 21 22 23 23 23 23 22 22 21 21 20 19 19 18 16 16 15 15 17 15 12 12 12 12 11 11 10
20 21 22 23 23 22 21 21 22 21 21 22 21 20 22 22 22 24 25 25 25 24 24 22 22 22 21 20 19 17 17 17 16 17 18 15 12 13 13 12 12 11
18 19 21 22 22 23 23 22 23 23 22 22 22 21 22 23 23 24 26 26 26 26 26 24 22 23 22 20 20 19 18 17 16 16 18 17 14 14 14 14 12 12
16 18 19 21 21 23 24 24 24 25 25 24 24 23 22 22 22 23 25 26 26 26 26 25 23 23 23 22 21 20 19 19 17 16 16 17 16 15 16 15 12 12
15 17 19 20 20 21 24 26 25 25 26 26 26 25 25 24 23 23 24 26 26 26 26 26 24 23 23 23 22 21 20 20 20 18 17 17 17 16 16 15 13 13
14 16 18 20 20 20 23 26 27 26 26 27 26 25 28 28 24 22 22 24 25 25 25 25 24 23 23 23 23 22 21 21 21 20 18 18 18 18 17 17 16 15
14 15 16 18 19 20 22 26 29 28 26 26 26 26 28 28 26 23 21 21 23 24 24 25 24 23 23 23 23 22 21 21 21 20 19 18 18 18 17 17 16 16
13 12 13 15 17 21 24 26 28 27 25 28 31 29 27 26 27 26 22 20 21 22 22 23 23 23 22 22 23 22 21 21 20 20 20 18 18 17 17 17 17 16
11 11 11 13 15 18 21 25 27 26 24 28 32 31 27 26 27 27 24 20 18 19 21 21 21 22 21 21 22 22 21 21 20 21 20 20 19 18 18 18 17 17
9 9 10 13 14 15 18 22 27 29 26 26 30 32 30 29 31 29 26 23 19 18 22 22 19 19 18 18 20 21 21 20 20 21 21 20 20 19 18 18 18 18
8 7 9 11 13 14 17 21 26 29 29 26 27 31 32 31 32 30 25 24 23 20 21 19 16 17 18 16 17 19 20 20 20 20 21 20 19 19 19 18 18 19
6 7 8 9 11 13 16 22 27 30 29 24 22 27 30 31 32 29 23 22 22 21 21 19 16 19 22 21 20 19 18 19 20 19 20 20 19 18 18 19 19 19
5 6 8 8 9 10 13 17 20 26 27 23 22 25 28 30 31 28 24 21 20 19 21 20 18 19 22 22 23 22 19 18 18 18 18 19 19 19 18 18 19 19
4 5 7 7 7 7 7 6 6 20 22 21 23 25 25 27 29 27 24 22 19 18 19 20 19 21 23 21 20 23 23 20 18 18 18 17 18 19 18 18 18 18
5 4 5 5 5 4 3 4 8 14 17 18 21 22 22 23 24 25 23 20 18 17 18 18 18 20 23 22 21 23 25 23 20 18 18 17 16 16 17 17 16 16
4 4 2 2 2 3 3 5 8 11 13 15 16 18 18 18 19 21 21 18 17 16 17 17 17 18 20 21 21 21 23 23 20 18 17 19 19 16 15 14 13 13
3 2 2 1 1 2 3 5 8 10 12 13 14 16 17 17 18 18 18 18 16 16 16 16 16 17 19 20 21 22 23 22 20 18 17 20 21 19 17 16 14 14
1 1 2 2 3 3 4 5 7 9 11 12 14 15 16 17 17 17 17 18 17 16 17 17 16 16 17 19 20 22 23 22 19 18 18 20 21 20 19 18 18 17
2 1 2 3 3 4 4 5 6 7 9 11 12 14 15 15 16 17 18 18 17 17 18 17 16 16 17 19 19 20 22 22 20 19 19 20 20 19 18 18 18 18
3 3 4 4 4 5 5 5 6 6 7 8 9 11 12 13 14 16 18 19 19 19 18 18 16 16 17 20 21 21 21 21 19 18 19 20 20 19 20 21 20 19
5 5 5 5 5 5 5 6 6 6 7 7 8 10 11 12 12 14 16 18 19 19 20 19 17 16 17 20 20 21 22 21 17 16 16 17 18 17 17 19 18 18
7 6 6 5 5 6 5 5 6 7 8 8 9 11 11 11 13 13 14 15 17 18 18 18 18 18 19 19 19 20 23 21 18 18 18 17 16 15 15 16 17 17
Wind_Direction
209 208 208 210 212 213 208 204 204 204 206 208 207 207 205 204 204 203 205 203 201 202 201 200 200 199 201 199 196 198 195 196 198 197 199 201 212 220 208 203 214 221
212 211 211 212 214 214 210 206 206 207 208 209 211 212 210 207 205 204 205 204 203 204 202 202 202 202 204 203 199 200 198 198 203 203 201 203 211 218 214 206 205 211
219 216 215 217 218 217 214 212 211 211 210 210 212 213 212 210 207 204 205 204 204 205 203 203 204 204 207 206 202 203 200 196 202 209 206 206 213 217 215 216 210 204
228 225 223 223 222 220 219 218 215 212 211 211 213 214 212 211 209 205 204 204 206 207 205 205 206 205 207 207 205 205 204 198 199 207 210 209 213 218 218 220 221 213
234 233 231 229 227 223 221 222 220 215 214 213 213 214 213 210 209 208 207 206 207 208 207 207 207 207 206 206 207 208 206 203 200 203 209 212 212 216 221 220 221 222
236 236 236 234 231 227 224 225 224 222 220 217 213 213 213 211 209 210 210 209 209 210 210 208 208 209 208 205 207 209 209 208 203 199 204 213 215 215 222 223 219 221
238 237 237 237 235 231 227 227 228 226 224 221 216 214 214 212 210 210 211 212 212 212 211 210 209 209 208 207 206 208 210 211 206 197 200 209 213 213 222 226 219 218
239 241 238 238 237 234 230 229 232 230 227 223 220 217 213 212 211 211 211 213 214 214 213 212 210 209 209 208 209 208 209 211 208 199 197 205 208 210 216 221 217 216
240 242 241 239 235 234 233 232 233 233 229 226 224 220 216 215 214 212 211 212 213 214 214 213 211 210 210 209 210 210 210 212 212 208 204 206 209 209 212 218 218 218
245 243 242 239 235 233 233 233 233 232 231 229 227 223 218 217 215 211 208 210 212 213 213 213 212 211 211 211 210 211 213 214 214 213 211 210 212 213 214 217 220 221
254 250 245 242 241 239 236 235 235 232 229 227 225 222 219 217 214 210 208 207 210 212 212 211 212 213 213 212 212 213 214 215 216 216 215 213 214 216 216 218 220 221
261 258 252 246 245 244 242 240 236 229 226 226 225 222 218 217 214 212 212 210 207 210 212 211 211 214 215 214 215 216 216 218 218 218 218 217 216 217 217 219 221 221
266 260 255 253 250 247 246 243 237 230 225 226 228 225 216 212 213 212 211 210 208 208 210 212 213 215 217 216 215 217 218 219 220 219 219 220 219 220 221 221 222 224
267 261 259 261 258 252 248 246 242 235 226 222 225 223 215 211 212 210 206 207 209 209 210 215 219 213 212 216 216 217 219 219 221 221 220 222 223 222 224 224 225 227
266 267 265 265 265 259 253 252 248 238 227 221 219 216 213 210 209 207 204 204 208 210 212 221 224 208 204 214 216 217 221 221 222 223 221 222 223 224 225 226 227 229
266 272 271 272 275 270 265 265 256 237 224 217 212 209 207 203 202 203 202 201 205 206 206 212 216 206 205 211 211 211 219 223 224 225 224 223 223 225 226 226 227 230
267 280 279 283 289 287 292 288 254 219 208 208 209 209 207 204 203 202 197 193 194 195 197 202 205 206 208 210 210 209 214 221 224 224 224 224 224 225 226 227 229 231
251 274 280 294 311 313 324 333 191 182 189 200 202 201 200 198 199 197 190 186 186 188 195 202 206 209 212 211 210 211 213 217 223 225 224 224 224 225 225 227 229 231
235 253 276 304 335 353 23 93 138 162 177 186 187 187 186 186 190 193 191 190 191 194 200 206 210 215 216 213 213 216 218 219 223 229 231 229 228 230 229 228 229 230
234 235 253 306 356 32 87 136 154 165 174 180 182 183 183 185 192 197 197 195 195 200 206 209 211 215 216 214 215 220 224 224 224 230 235 235 232 232 230 228 229 229
241 227 208 169 123 103 113 147 163 169 175 180 184 185 187 192 197 198 200 200 201 204 208 210 211 213 214 215 218 223 227 226 224 226 230 232 231 230 229 229 230 230
239 236 208 171 144 142 145 157 169 177 181 183 185 188 191 195 198 200 202 205 205 206 208 211 212 215 218 221 224 228 228 225 224 225 227 228 230 230 228 229 231 230
195 215 206 174 162 168 168 168 176 184 188 189 189 191 194 197 200 202 203 203 204 206 210 213 215 217 220 225 229 231 227 223 223 226 228 229 231 229 226 228 231 229
187 202 192 173 176 182 176 174 180 187 191 192 192 193 196 199 202 204 205 205 207 209 211 214 215 216 219 223 229 231 227 222 222 226 228 230 233 232 230 231 233 230
191 190 180 174 177 178 177 175 175 183 189 192 199 203 202 203 206 210 211 212 214 215 217 218 219 219 221 223 226 227 225 221 220 222 227 231 233 233 230 229 230 232
197 186 174 177 175 166 167 169 169 176 178 182 200 210 209 209 213 213 211 212 215 217 219 222 221 221 223 224 224 225 222 218 216 218 224 230 231 229 228 229 231 234